CZ-6A R/B, 62237

Orbit data source: Space-Track

CZ-6A R/B, 62237 is space debris in LEO originally from a launch on Thu, 05 Dec 2024 UTC launched from the Taiyaun Space Center, China (TSC). Debris objects in space refer to the collection of defunct objects orbiting the Earth. Examples of debris include non-operational satellites, rocket bodies, and fragments generated from explosions, collisions, or faulty payload assembly.

Loading next visibility...
Identifier
62237, 2024-232A
Orbit
LEO
Country
Flag of CNCN / PRC
Related business
Manufacturer
SAST
Mission
Spacecraft
Bus & Motor
CZ-6A STAGE 2, YF-115
Mass
~6,000 kg wet, ~6,000 kg dry
Launch date (UTC)
2024-12-05 (2 years ago)
Launch vehicle
Unknown
Launch site
Taiyaun Space Center, China (TSC)
Object type
Payload
Rocket body
Debris
Shape & HBR
Unknown shape, 5.5 m
Radar Cross Section
Large (>1 m²)

Expand to show TLE details & history
Last TLE update: 14 hours ago

TLE from 14 hours ago
0 CZ-6A R/B
1 62237U 24232A   26171.38179656  .00000190  00000-0  40256-4 0  9996
2 62237  89.0347  14.8202 0097753 353.7296   6.2680 14.51886382129882
Epoch: 2026-06-20T09:09Z
TLE epoch observation values (Epoch: 2026-06-20T09:09:47.222Z)
Latitude
-0.00001°
Longitude
-31.22379°
Altitude
653.62 km
Speed
7.567 km/s
True Right ascension
00h 59m 16s
True Declination
0° 00' 00"
Sunlit
Object was in daylight at epoch
Visualization orbit readout
Latitude
Unknown
Longitude
Unknown
Altitude
Unknown
Speed
Unknown
Apparent Right ascension
Unknown
Apparent Declination
Unknown
Sunlit
N/A
Visualization observer readout
Local Sidereal Time
10:18:52
Azimuth
Unknown
Elevation
Unknown
Doppler factor
Unknown
Orbital elements
Apogee altitude
785.75 km
Perigee altitude
647.048 km
Semi-major axis
7,094.536 km
Eccentricity
0.00978
Inclination
89.0347°
RAAN
14.8202°
Arg. of periapsis
353.7296°
True anomaly
6.3918°
Mean anomaly
6.268°
Eccentric anomaly
6.32975°
Mean motion
3.63209 °/min
Orbital period
99.12 mins
BSTAR
0.000040256
Loading maneuver chart data...
Computing Atmospheric mass density...
Loading historical data...
Loading historical data...
Loading historical data...
Loading historical data...
Loading historical data...
Loading historical data...
Loading historical data...

Documentation

Showing up to 5 results
|